Location: Street
(51.1247°N, 2.7429°W)
Time: 15:22:11
(UTC+01:00)

CAS-6 - Pass Details

Date: 05 April 2023
Orbit: 610 x 632 km, 97.9° (Epoch: 03 June)

Event Time Altitude Azimuth Distance (km) Brightness Sun altitude
Exits shadow 23:48:36 37° 306° (NW) 978 ? -29.8°
Drops below altitude 10° 23:51:38 10° 336° (NNW) 2,015 ? -30.0°
Sets 23:53:55 0° 342° (NNW) 2,931 ? -30.1°
